Regional Weather Roundup
Issued by NWS Charleston, SC

Home | Current Version | Previous Version | Text Only | Print | Product List | Glossary On
Versions: 1 2 3 4 5 6 7 8 9 10 11 12 13 14 15 16 17 18 19 20 21 22 23 24 25 26 27 28 29 30 31 32 33 34 35 36 37 38 39 40 41 42 43 44 45 46 47 48 49 50
000
ASUS42 KCHS 231625
RWRCHS

REGIONAL WEATHER ROUNDUP
NATIONAL WEATHER SERVICE CHARLESTON SC
1200 PM EDT WED APR 23 2014

NOTE: "FAIR" INDICATES FEW OR NO CLOUDS BELOW 12,000 FEET WITH NO
SIGNIFICANT WEATHER AND/OR OBSTRUCTIONS TO VISIBILITY.

NOT ALL STATIONS ARE QUALITY CONTROLLED BY THE NATIONAL
WEATHER SERVICE. USE DATA WITH CAUTION...ESPECIALLY
DEWPOINT OBSERVATIONS.

SCZ027-030-031-034>040-042>050-231700-
...SOUTH CAROLINA...

CITY           SKY/WX    TMP DP  RH WIND       PRES   REMARKS
N CHARLESTON   MOSUNNY   79  58  48 NW6       29.88S
WATERFRONT PRK   N/A     73 N/A N/A N8          N/A
FORT JOHNSON     N/A     72  61  68 N8        29.93R
MOUNT PLEASANT FAIR      77  59  53 CALM      29.87F
JOHNS ISLAND   SUNNY     81  63  54 NW8       29.87F
PINOPOLIS        N/A     72  61  68 W3        29.82R
MONCKS CORNER  FAIR      73  63  68 N5        29.88S
SUMMERVILLE    NOT AVBL
BEAUFORT MCAS  MOSUNNY   78  62  57 N10       29.89S
BEAUFORT ARPT  FAIR      77  64  65 W9        29.88F
HILTON HEAD IS SUNNY     75  63  64 NW7       29.91S
GEORGETOWN     NOT AVBL
WALTERBORO     SUNNY     77  61  57 W6        29.89F
ORANGEBURG     SUNNY     74  53  48 NW5       29.89F
BARNWELL       FAIR      77  54  44 W5        29.89F
AIKEN          FAIR      73  55  53 W6        29.92F
MANNING        FAIR      77  55  47 W6        29.87F
KINGSTREE      NOT AVBL
COLUMBIA       MOSUNNY   75  49  39 VRB3      29.89S
SUMTER         SUNNY     74  52  46 NW10      29.87R
FLORENCE       SUNNY     75  46  35 VRB7      29.86F
MYRTLE BEACH   SUNNY     73  48  40 N14       29.85S
N MYRTLE BEACH   N/A     75  47  36 MISG      29.84S

$$

GAZ063-065-086>088-099>101-113>116-118-119-134-136>141-150-231700-
...GEORGIA...

CITY           SKY/WX    TMP DP  RH WIND       PRES   REMARKS
SAVANNAH ARPT  MOSUNNY   76  62  62 NW9       29.91S
HUNTER AAF     SUNNY     74  64  70 NW5       29.90S
FORT STEWART   SUNNY     74  66  77 VRB5      29.91F
STATESBORO     NOT AVBL
SYLVANIA       SUNNY     78  55  45 W5        29.90F
CLAXTON        FAIR      79  63  57 NW13      29.91F
THOMSON        SUNNY     74  52  46 W10       29.94F
AUGUSTA-BUSH   SUNNY     75  54  47 N9        29.89F
AUGUSTA-DANIEL SUNNY     74  55  51 VRB6      29.90F
SWAINSBORO     FAIR      77  59  53 NW8       29.92F
VIDALIA        SUNNY     73  61  64 W3        29.93F
ALMA           SUNNY     77  60  55 NW6       29.93F
WAYCROSS       NOT AVBL
JESUP          FAIR      75  64  69 NW10      29.92F
BRUNSWICK      MOSUNNY   79  61  53 W8        29.92F
SAINT SIMONS   SUNNY     78  61  55 W8        29.92S

$$

SCZ027-028-034-036>038-045-046-048>050-GAZ119-141-231700-
...LAKE AND SUPPLEMENTAL COASTAL OBSERVATIONS...

STATION/POSITION TIME  TEMP    WIND        PRES    WAVE   SWELL
                       AIR SEA DIR/SP/G            HT/PER HT/PER/DIR
                 (UTC) (F)     (DEG/KT/KT) (MB)    (FT/S) (FT/S/D)
UPR LAKE MARION  NOT AVBL
WINYAH BAY       1600   73     300/  7     1011.0S
LAKE MURRAY      1600   68     130/  4/  5 1011.9S
ACE BASIN NERRS  1600   77     320/  3     1012.0S
FORT PULASKI     NOT AVBL
SAPELO ISLAND    1600   77     290/  8     1013.0F

$$

ANZ835-935-AMZ111-154-330-350-352-354-374-450-454-472-231700-
...C-MAN AND BUOY OBSERVATIONS...

STATION/POSITION TIME  TEMP    WIND        PRES    WAVE   SWELL
                       AIR SEA DIR/SP/G            HT/PER HT/PER/DIR
                 (UTC) (F)     (DEG/KT/KT) (MB)    (FT/S) (FT/S/D)
FOLLY BEACH CMAN 1600   71     160/  7/  8 1012.0S
BUOY 41004       1600   65 68  270/  8/ 10 1011.6R   2/ 8   2/ 8
BUOY 41008       1600   67 66  260/  4/  4 1013.1R   2/ 8   2/100/ 8
5E ST. MARYS GA  1600      67                N/A     2/ 8
FRYING PAN BUOY  1600   65 68  270/ 12/ 14 1010.3R   3/ 8   2/110/ 8
BUOY 41025       1600   59 75  360/ 21/ 27 1008.4R   6/ 6   2/100/ 9
CAPE LOOKOUT NC  1600   60      80/ 12/ 13 1008.9F
BUOY 41002       NOT AVBL
BUOY 41010       1600   74 76  280/ 10/ 12 1013.7F   4/ 8   3/ 60/ 8
BUOY 41012       NOT AVBL
ST AUGUSTINE FL  1600   70     110/  7/  7 1014.3S
CAPERS NEARSHORE NOT AVBL
FRIPP NEARSHORE  1500   68     260/  6/  6   N/A


$$


USA.gov is the U.S. government's official web portal to all federal, state and local government web resources and services.